This demonstration page uses our WeatherBlox Daily Observations layout. Learn more.

Left ArrowRight Arrow

39.92423, -83.80882

Hourly Observations for January 23, 2019

Temp ( °F °C ) Dew Point ( °F °C ) Humidity (%) Winds ( mph kmh ) Pressure ( in mb ) Visibility ( mi km ) Precip ( " mm )
12:56 am 00:56 Cloudy 41 5 30 -1.1 65 65 S 12 19 30.05 1018 10 16 N/A
1:56 am 01:56 Cloudy 42 5.6 32 undefined 68 68 S 12 19 30.04 1017 10 16 N/A
2:56 am 02:56 Cloudy 42 5.6 33 0.6 71 71 S 12 19 30.01 1016 10 16 N/A
3:56 am 03:56 Cloudy with Light Rain 41 5 35 1.7 79 79 S 12 19 29.98 1015 10 16 N/A
4:56 am 04:56 Cloudy with Light Rain 40 4.4 37 2.8 89 89 S 9 15 29.95 1014 8 13 0.01 0.25
5:56 am 05:56 Cloudy with Light Rain 39 3.9 38 3.3 96 96 S 12 19 29.92 1013 10 16 0.03 0.76
6:56 am 06:56 Cloudy with Light Rain 40 4.4 38 3.3 93 93 S 12 19 29.88 1012 10 16 0.03 0.76
7:56 am 07:56 Cloudy with Light Rain 42 5.6 40 4.4 92 92 S 17 28 29.86 1011 10 16 0.01 0.25
8:56 am 08:56 Cloudy with Light Rain 42 5.6 41 5 96 96 S 16 26 29.85 1011 9 14 0.05 1.27
9:56 am 09:56 Cloudy with Rain 43 6.1 42 5.6 97 97 S 20 31 29.83 1010 7 11 0.10 2.54
10:56 am 10:56 Cloudy with Light Rain 44 6.7 43 6.1 96 96 S 16 26 29.82 1010 10 16 0.09 2.29
11:51 am 11:51 Cloudy with Light Rain 45 7 43 6 93 93 S 15 24 29.80 1009 10 16 0.03 0.76
11:56 am 11:56 Cloudy with Light Rain 44 6.7 44 6.7 100 100 S 14 22 29.80 1009 10 16 0.03 0.76
12:42 pm 12:42 Cloudy with Light Rain 45 7 45 7 100 100 S 16 26 29.80 1009 10 16 0.02 0.51
12:56 pm 12:56 Cloudy with Light Rain 45 7.2 45 7.2 100 100 S 16 26 29.76 1008 10 16 0.04 1.02
1:56 pm 13:56 Cloudy with Light Rain 46 7.8 46 7.8 100 100 S 13 20 29.73 1007 10 16 0.02 0.51
2:56 pm 14:56 Cloudy with Light Rain 47 8.3 47 8.3 100 100 S 14 22 29.70 1006 10 16 0.03 0.76
3:36 pm 15:36 Cloudy with Rain 48 9 46 8 94 94 S 13 20 29.68 1005 10 16 0.06 1.52
3:56 pm 15:56 Cloudy with Light Rain 48 8.9 48 8.9 100 100 SSW 12 19 29.70 1006 10 16 0.09 2.29
4:56 pm 16:56 Cloudy with Light Rain 48 8.9 48 8.9 100 100 S 13 20 29.66 1005 10 16 0.04 1.02
5:43 pm 17:43 Cloudy with Light Rain 48 9 48 9 100 100 SSW 13 20 29.68 1005 10 16 N/A
5:56 pm 17:56 Cloudy with Light Rain 48 8.9 47 8.3 96 96 SSW 12 19 29.70 1006 10 16 0.01 0.25
6:18 pm 18:18 Cloudy with Light Rain 43 6 43 6 100 100 WNW 12 19 29.74 1007 5 8 0.03 0.76
6:56 pm 18:56 Cloudy with Light Rain 39 3.9 39 3.9 100 100 WNW 12 19 29.74 1007 10 16 0.05 1.27
7:38 pm 19:38 Cloudy with Light Rain 37 3 37 3 100 100 NNW 10 17 29.74 1007 7 11 N/A
7:56 pm 19:56 Cloudy with Light Rain 37 2.8 37 2.8 100 100 NW 9 15 29.73 1007 4 6 N/A
8:20 pm 20:20 Cloudy with Light Rain 36 2 36 2 100 100 NW 9 15 29.74 1007 3 4 N/A
8:46 pm 20:46 Cloudy with Light Rain 36 2 36 2 100 100 NW 9 15 29.74 1007 3 5 N/A
8:56 pm 20:56 Cloudy with Light Rain 34 1.1 34 1.1 100 100 WNW 10 17 29.74 1007 3 5 N/A
9:56 pm 21:56 Cloudy with Light Rain 33 0.6 33 0.6 100 100 NW 12 19 29.73 1007 9 14 0.06 1.52
10:56 pm 22:56 Cloudy with Light Snow 32 undefined 32 undefined 100 100 NW 8 13 29.73 1007 3 5 0.06 1.52
11:24 pm 23:24 Cloudy with Light Snow 30 -1 30 -1 100 100 NW 12 19 29.77 1008 3 5 0.02 0.51
11:36 pm 23:36 Cloudy with Light Snow 30 -1 30 -1 100 100 NW 9 15 29.77 1008 4 6 0.02 0.51

Powered by AerisWeather